Terug naar catalogus

AMC-4

GE-4

ActiefCommunicatieGEO
NORAD 25954·PAYLOAD·🇱🇺 Luxembourg

Gelanceerd Nov 13, 1999 vanaf Guiana Space Centre

Loading…

TLE

VersSource: Space-Track

Epoch: Sep 14, 2026, 13:18 UTC

1 25954U 99060A   26257.55451747  .00000023  00000-0  00000-0 0  9994
2 25954   5.4782  72.7738 0005480 142.3853 233.9911  0.99131385 44308

Volg AMC-4 in realtime met AllMySat

Download on the App Store